Adana Incirlik AFB, Turkey

6:49 AM +03 on May 30, 2017 (GMT +0300)
Incirlik Air Base

Weather History for LTAG - April, 2013

Change the Weather History Date:

Sunday, April 7, 2013

  Actual Average Record
Temperature  
Mean Temperature 67 °F -  
Max Temperature 83 °F 77 °F 83 °F (2013)
Min Temperature 51 °F 56 °F 41 °F (1997)
Cooling Degree Days 2    
Growing Degree Days 17 (Base 50)    
Moisture  
Dew Point 54 °F    
Average Humidity 71    
Maximum Humidity 100    
Minimum Humidity 25    
Precipitation  
Precipitation 0.00 in - - ()
Sea Level Pressure  
Sea Level Pressure 29.87 in    
Wind  
Wind Speed 4 mph ()    
Max Wind Speed 8 mph    
Max Gust Speed -    
Visibility 4.9 miles    
Events Fog    
Averages and records for this station are not official NWS values.
T = Trace of Precipitation, MM = Missing Value Source: Averaged Metar Reports

Daily Weather History Graph

Daily Weather History Graph

Search for Another Location

Airport or City:

Trip Planner

Search our weather history database for the weather conditions in past years. The results will help you decide how hot, cold, wet, or windy it might be!

Date:

Astronomy

Apr. 07, 2013 Rise Set
Actual Time 6:15 AM EEST 7:05 PM EEST
Civil Twilight 5:49 AM EEST 7:32 PM EEST
Nautical Twilight 5:17 AM EEST 8:03 PM EEST
Astronomical Twilight 4:45 AM EEST 8:35 PM EEST
Moon 4:17 AM EEST (4/7) 4:19 PM EEST (4/7)
Length of Visible Light 13h 43m
Length of Day
12h 50m
Waning Crescent, 10% of the Moon is Illuminated
Apr 7
Waning Crescent
Apr 10
New
Apr 18
First Quarter
Apr 25
Full
May 2
Last Quarter

Hourly Weather History & Observations

Time (EEST) Temp. Heat Index Dew Point Humidity Pressure Visibility Wind Dir Wind Speed Gust Speed Precip Events Conditions
12:20 AM 55.4 °F - 55.4 °F 100% 30.01 in 6.2 mi ENE 2.3 mph - N/A   Partly Cloudy
12:50 AM 55.4 °F - 55.4 °F 100% 29.98 in 6.2 mi ENE 4.6 mph - N/A   Partly Cloudy
1:20 AM 55.4 °F - 53.6 °F 94% 29.98 in 6.2 mi NNE 5.8 mph - N/A   Partly Cloudy
1:50 AM 55.4 °F - 53.6 °F 94% 29.98 in 6.2 mi NNE 5.8 mph - N/A   Partly Cloudy
2:20 AM 53.6 °F - 53.6 °F 100% 29.95 in 0.5 mi NE 4.6 mph - N/A Fog Fog
2:50 AM 55.4 °F - 53.6 °F 94% 29.95 in 0.2 mi NNE 5.8 mph - N/A Fog Fog
3:00 AM 55 °F - 54 °F 97% 29.95 in 0 mi NNE 5.8 mph - - Fog Partial Fog
3:20 AM 55.4 °F - 55.4 °F 100% 29.95 in 0.7 mi NE 4.6 mph - N/A   Partly Cloudy
3:32 AM 55.4 °F - 55.4 °F 100% 29.95 in 0.5 mi NE 4.6 mph - N/A Fog Fog
3:50 AM 57.2 °F - 55.4 °F 94% 29.95 in 0.9 mi North 3.5 mph - N/A   Partly Cloudy
4:20 AM 57.2 °F - 57.2 °F 100% 29.95 in 1.9 mi North 2.3 mph - N/A   Scattered Clouds
4:50 AM 55.4 °F - 55.4 °F 100% 29.92 in 5.0 mi NNW 2.3 mph - N/A   Scattered Clouds
5:20 AM 53.6 °F - 53.6 °F 100% 29.92 in 5.0 mi NNE 2.3 mph - N/A   Scattered Clouds
5:50 AM 51.8 °F - 51.8 °F 100% 29.92 in 6.2 mi NE 3.5 mph - N/A   Scattered Clouds
6:20 AM 53.6 °F - 53.6 °F 100% 29.92 in 6.2 mi NNE 3.5 mph - N/A   Scattered Clouds
6:50 AM 53.6 °F - 53.6 °F 100% 29.92 in 6.2 mi Variable 2.3 mph - N/A   Scattered Clouds
7:20 AM 55.4 °F - 53.6 °F 94% 29.92 in 6.2 mi Variable 2.3 mph - N/A   Scattered Clouds
7:50 AM 57.2 °F - 55.4 °F 94% 29.92 in 6.2 mi Variable 2.3 mph - N/A   Scattered Clouds
8:20 AM 59.0 °F - 57.2 °F 94% 29.92 in 6.2 mi Variable 2.3 mph - N/A   Scattered Clouds
8:50 AM 60.8 °F - 57.2 °F 88% 29.92 in 6.2 mi Variable 2.3 mph - N/A   Scattered Clouds
9:00 AM 61 °F - 57 °F 84% 29.91 in 6 mi 2.3 mph - -   Partly Cloudy
9:20 AM 60.8 °F - 57.2 °F 88% 29.89 in 6.2 mi Variable 2.3 mph - N/A   Scattered Clouds
9:50 AM 62.6 °F - 55.4 °F 77% 29.89 in 6.2 mi Variable 2.3 mph - N/A   Scattered Clouds
10:20 AM 62.6 °F - 55.4 °F 77% 29.86 in 6.2 mi NE 2.3 mph - N/A   Scattered Clouds
10:50 AM 64.4 °F - 53.6 °F 68% 29.86 in 6.2 mi NE 2.3 mph - N/A   Scattered Clouds
11:20 AM 68.0 °F - 53.6 °F 60% 29.86 in 6.2 mi NNE 2.3 mph - N/A   Scattered Clouds
11:50 AM 69.8 °F - 53.6 °F 56% 29.86 in - NE 3.5 mph - N/A   Clear
12:20 PM 71.6 °F - 51.8 °F 50% 29.86 in - NE 3.5 mph - N/A   Clear
12:50 PM 73.4 °F - 50.0 °F 44% 29.83 in - SSW 3.5 mph - N/A   Clear
1:20 PM 73.4 °F - 50.0 °F 44% 29.83 in - SSW 3.5 mph - N/A   Clear
1:50 PM 77.0 °F - 50.0 °F 39% 29.83 in - WSW 3.5 mph - N/A   Clear
2:20 PM 80.6 °F - 51.8 °F 37% 29.83 in - WSW 3.5 mph - N/A   Clear
2:50 PM 82.4 °F - 51.8 °F 35% 29.80 in - WSW 4.6 mph - N/A   Clear
3:00 PM 82 °F - 52 °F 25% 29.81 in 6 mi WSW 4.6 mph - -   Clear
3:20 PM 80.6 °F 80.3 °F 53.6 °F 39% 29.80 in - SW 4.6 mph - N/A   Clear
3:50 PM 80.6 °F 80.3 °F 53.6 °F 39% 29.80 in - WSW 4.6 mph - N/A   Clear
4:20 PM 82.4 °F 81.4 °F 53.6 °F 37% 29.80 in - WSW 5.8 mph - N/A   Clear
4:50 PM 82.4 °F 81.4 °F 53.6 °F 37% 29.80 in - WSW 5.8 mph - N/A   Clear
5:20 PM 80.6 °F 80.3 °F 53.6 °F 39% 29.80 in - SW 8.1 mph - N/A   Clear
5:50 PM 78.8 °F - 53.6 °F 42% 29.80 in - SW 6.9 mph - N/A   Clear
6:20 PM 75.2 °F - 53.6 °F 47% 29.80 in - NNE 5.8 mph - N/A   Clear
6:50 PM 75.2 °F - 53.6 °F 47% 29.80 in - SSE 6.9 mph - N/A   Clear
7:20 PM 73.4 °F - 53.6 °F 50% 29.83 in - SE 4.6 mph - N/A   Clear
7:50 PM 73.4 °F - 53.6 °F 50% 29.80 in - SSE 5.8 mph - N/A   Clear
8:20 PM 71.6 °F - 53.6 °F 53% 29.80 in - East 3.5 mph - N/A   Clear
8:50 PM 69.8 °F - 55.4 °F 60% 29.80 in - SE 4.6 mph - N/A   Clear
9:00 PM 69 °F - 55 °F 52% 29.82 in 12 mi SE 4.6 mph - -   Clear
9:20 PM 68.0 °F - 55.4 °F 64% 29.80 in - SSE 4.6 mph - N/A   Clear
9:50 PM 68.0 °F - 57.2 °F 68% 29.80 in - SE 4.6 mph - N/A   Clear
10:20 PM 66.2 °F - 57.2 °F 73% 29.80 in - SE 4.6 mph - N/A   Clear
10:50 PM 64.4 °F - 57.2 °F 77% 29.80 in - North 4.6 mph - N/A   Clear
11:20 PM 62.6 °F - 57.2 °F 82% 29.77 in - NNE 5.8 mph - N/A   Clear
11:50 PM 60.8 °F - 57.2 °F 88% 29.77 in - NE 5.8 mph - N/A   Clear